DW5164 Weather Reports


time (UTC)temp
C
wind
direction
speed
KPH
gust
KPH
rain 1hr
cm
rain 24hr
cm
rain mn
cm
humidity
%
barometer
mb
20260506005533 12 355 0.0 0.0 0.00 0.41 0.00 97 1010.8
20260506005033 12 355 0.0 0.0 0.00 0.41 0.00 97 1010.8
20260506004534 12 355 0.0 0.0 0.00 0.41 0.00 97 1010.9
20260506004048 12 355 1.6 3.2 0.00 0.41 0.00 97 1010.9
20260506003533 12 220 0.0 3.2 0.00 0.41 0.00 97 1011.1
20260506003033 12 220 1.6 3.2 0.00 0.41 0.00 97 1011.2
20260506002033 12 257 1.6 3.2 0.00 0.41 0.00 97 1011.1
20260506001533 12 256 3.2 3.2 0.00 0.41 0.00 97 1011.3
20260506001034 12 216 0.0 0.0 0.00 0.41 0.00 97 1011.2
20260506000533 12 216 3.2 4.8 0.00 0.41 0.00 97 1011.3
20260506000033 12 84 0.0 0.0 0.00 0.41 0.00 97 1011.3
20260505235033 12 84 1.6 3.2 0.00 0.41 0.00 97 1011.3
20260505234033 12 183 1.6 4.8 0.00 0.41 0.00 97 1011.4
20260505233033 12 113 4.8 4.8 0.00 0.41 0.00 97 1011.5
20260505232533 12 104 3.2 4.8 0.00 0.41 0.00 97 1011.6
20260505232032 12 86 4.8 8.0 0.00 0.41 0.00 97 1011.6
20260505231532 12 93 3.2 8.0 0.00 0.41 0.00 97 1011.6
20260505230535 12 71 1.6 4.8 0.00 0.41 0.00 97 1011.5
20260505230036 12 71 3.2 4.8 0.00 0.41 0.00 97 1011.5
20260505225033 12 73 3.2 4.8 0.00 0.41 0.00 97 1011.6
20260505224033 12 72 3.2 4.8 0.00 0.41 0.00 97 1011.5
20260505223533 12 63 4.8 8.0 0.00 0.41 0.00 97 1011.6
20260505222533 12 91 3.2 4.8 0.00 0.41 0.00 97 1011.6
20260505222033 12 84 4.8 9.7 0.00 0.41 0.00 96 1011.6
20260505221536 12 88 4.8 8.0 0.00 0.41 0.00 96 1011.5
20260505221033 12 90 4.8 8.0 0.00 0.41 0.00 96 1011.6
20260505220534 12 81 6.4 9.7 0.00 0.41 0.00 96 1011.6
20260505215033 12 93 6.4 8.0 0.00 0.41 0.41 96 1011.7
20260505214533 12 98 3.2 4.8 0.00 0.41 0.41 96 1011.8
20260505214032 12 81 3.2 8.0 0.00 0.41 0.41 96 1011.9
20260505213535 12 86 4.8 8.0 0.00 0.41 0.41 96 1012.0
20260505213034 12 89 4.8 9.7 0.00 0.41 0.41 96 1012.1
20260505212533 12 86 4.8 9.7 0.00 0.41 0.41 95 1012.2
20260505212032 12 97 4.8 9.7 0.00 0.41 0.41 95 1012.2
20260505211036 13 79 4.8 11.3 0.00 0.41 0.41 95 1012.3
20260505210533 13 77 4.8 9.7 0.00 0.41 0.41 95 1012.3
20260505210040 13 78 4.8 8.0 0.00 0.41 0.41 95 1012.3
20260505205534 13 62 8.0 9.7 0.00 0.41 0.41 95 1012.3
20260505204548 13 86 6.4 9.7 0.00 0.41 0.41 94 1012.3
20260505204032 13 79 8.0 11.3 0.00 0.41 0.41 94 1012.3
20260505203534 13 83 4.8 11.3 0.00 0.41 0.41 94 1012.4
20260505203032 13 69 8.0 11.3 0.00 0.41 0.41 94 1012.3
20260505202533 13 71 3.2 12.9 0.00 0.41 0.41 94 1012.3
20260505201533 13 78 4.8 8.0 0.00 0.41 0.41 93 1012.3
20260505201033 13 64 4.8 9.7 0.00 0.41 0.41 93 1012.3
20260505200536 13 64 4.8 9.7 0.00 0.41 0.41 93 1012.3
20260505200048 13 78 4.8 11.3 0.00 0.41 0.41 92 1012.2
20260505195532 13 86 4.8 8.0 0.00 0.41 0.41 92 1012.2
20260505195034 13 82 4.8 11.3 0.00 0.41 0.41 92 1012.2
20260505194533 14 70 4.8 12.9 0.00 0.41 0.41 91 1012.1
20260505194033 14 76 4.8 8.0 0.00 0.41 0.41 91 1012.1
20260505193548 14 70 6.4 11.3 0.00 0.41 0.41 91 1012.1
20260505193032 14 80 6.4 14.5 0.00 0.41 0.41 91 1012.0
20260505192532 14 71 6.4 11.3 0.00 0.41 0.41 90 1012.0
20260505192035 14 69 6.4 9.7 0.00 0.41 0.41 90 1012.0
20260505191533 15 64 6.4 11.3 0.00 0.41 0.41 90 1012.0
20260505191032 15 77 8.0 12.9 0.00 0.41 0.41 90 1012.0
20260505190533 15 67 8.0 12.9 0.00 0.41 0.41 90 1012.0
20260505190033 15 78 3.2 11.3 0.00 0.41 0.41 90 1012.0
20260505185532 15 58 6.4 9.7 0.00 0.41 0.41 89 1011.9
20260505185032 15 83 8.0 11.3 0.00 0.41 0.41 89 1011.9
20260505184532 15 77 9.7 12.9 0.00 0.41 0.41 89 1011.8
20260505184032 15 71 8.0 16.1 0.00 0.41 0.41 88 1011.9
20260505183533 15 67 6.4 11.3 0.00 0.41 0.41 88 1012.0
20260505183032 15 63 6.4 11.3 0.00 0.41 0.41 88 1011.9
20260505182533 15 61 6.4 11.3 0.00 0.41 0.41 88 1011.8
20260505182032 15 52 3.2 4.8 0.00 0.41 0.41 87 1011.8
20260505181533 15 76 4.8 8.0 0.00 0.41 0.41 87 1011.7
20260505181032 16 65 8.0 11.3 0.00 0.41 0.41 86 1011.8
20260505180532 16 66 6.4 11.3 0.00 0.41 0.41 86 1011.8
20260505175535 16 62 9.7 14.5 0.00 0.41 0.41 86 1011.7
20260505175032 16 62 9.7 12.9 0.00 0.41 0.41 86 1011.5
20260505174532 16 59 9.7 12.9 0.00 0.41 0.41 86 1011.6
20260505174033 16 65 8.0 16.1 0.00 0.41 0.41 85 1011.6
20260505173533 16 70 8.0 12.9 0.00 0.41 0.41 85 1011.6
20260505172531 16 58 8.0 16.1 0.00 0.41 0.41 85 1011.5
20260505172031 16 57 11.3 19.3 0.00 0.41 0.41 85 1011.5
20260505171532 16 64 4.8 14.5 0.00 0.41 0.41 85 1011.5
20260505171032 16 52 8.0 19.3 0.00 0.41 0.41 85 1011.4
20260505170532 16 66 11.3 19.3 0.00 0.41 0.41 86 1011.4
20260505170032 16 80 9.7 16.1 0.00 0.41 0.41 86 1011.5
20260505165533 16 62 12.9 19.3 0.00 0.41 0.41 86 1011.5
20260505164532 16 75 12.9 19.3 0.00 0.41 0.41 85 1011.5
20260505164032 16 70 14.5 24.1 0.00 0.41 0.41 84 1011.5
20260505163532 17 77 12.9 20.9 0.00 0.41 0.41 84 1011.6
20260505162034 17 64 9.7 14.5 0.00 0.41 0.41 83 1011.5
20260505161532 17 60 11.3 16.1 0.00 0.41 0.41 83 1011.5
20260505161035 17 90 11.3 19.3 0.00 0.41 0.41 83 1011.5
20260505160532 17 73 14.5 20.9 0.00 0.41 0.41 83 1011.6
20260505153031 17 71 9.7 20.9 0.00 0.41 0.41 84 1011.9
20260505152031 17 55 8.0 19.3 0.00 0.41 0.41 84 1011.8
20260505151531 17 59 14.5 19.3 0.00 0.41 0.41 83 1011.8
20260505151032 17 65 9.7 19.3 0.00 0.41 0.41 83 1011.8
20260505150532 17 49 11.3 19.3 0.00 0.41 0.41 83 1011.8
20260505140533 17 72 14.5 22.5 0.00 0.41 0.41 84 1011.9
20260505125031 16 82 16.1 24.1 0.00 0.41 0.41 87 1012.5
20260505124531 16 78 11.3 16.1 0.00 0.41 0.41 88 1012.4
20260505124031 16 75 11.3 19.3 0.00 0.41 0.41 88 1012.4
20260505123531 16 87 9.7 14.5 0.00 0.41 0.41 89 1012.5
20260505123031 15 77 6.4 14.5 0.00 0.41 0.41 90 1012.6
20260505122534 15 90 11.3 19.3 0.00 0.41 0.41 90 1012.7
20260505122031 15 97 9.7 19.3 0.00 0.41 0.41 90 1012.7
20260505121542 15 76 4.8 19.3 0.00 0.41 0.41 90 1012.7
20260505120531 15 77 11.3 19.3 0.00 0.41 0.41 91 1012.7
20260505120034 15 86 9.7 14.5 0.00 0.41 0.41 91 1012.7
20260505115030 15 88 9.7 22.5 0.00 0.41 0.41 91 1012.7
20260505114531 15 72 14.5 20.9 0.00 0.41 0.41 92 1012.7
20260505114032 15 64 14.5 20.9 0.00 0.41 0.41 92 1012.8
20260505113531 15 58 8.0 19.3 0.00 0.41 0.41 93 1012.9
20260505113032 15 75 11.3 19.3 0.00 0.41 0.41 92 1012.9
20260505112530 15 86 9.7 12.9 0.00 0.41 0.41 92 1012.9
20260505112038 15 85 11.3 16.1 0.00 0.41 0.41 93 1012.9
20260505111546 15 99 9.7 20.9 0.00 0.41 0.41 93 1012.9
20260505111031 15 69 14.5 16.1 0.00 0.41 0.41 93 1012.9
20260505110531 15 86 11.3 19.3 0.00 0.41 0.41 94 1013.0
20260505102031 13 119 6.4 11.3 0.00 0.41 0.41 96 1013.1
20260505101031 13 65 8.0 14.5 0.03 0.41 0.41 96 1012.9
20260505100531 13 60 6.4 11.3 0.05 0.41 0.41 96 1012.9
20260505100032 13 99 4.8 11.3 0.05 0.41 0.41 96 1012.9
20260505095530 13 75 9.7 11.3 0.05 0.41 0.41 96 1013.0
20260505095031 13 116 4.8 8.0 0.08 0.41 0.41 96 1013.0
20260505094530 13 105 8.0 12.9 0.08 0.41 0.41 96 1013.0
20260505094033 13 119 8.0 11.3 0.10 0.41 0.41 96 1013.0
20260505093530 13 98 8.0 11.3 0.10 0.41 0.41 96 1013.0
20260505092531 13 82 4.8 14.5 0.13 0.41 0.41 96 1012.9
20260505092032 13 89 8.0 14.5 0.15 0.41 0.41 96 1012.9
20260505091530 13 76 8.0 11.3 0.15 0.38 0.38 95 1012.9
20260505090530 13 77 9.7 12.9 0.15 0.36 0.36 95 1012.8
20260505090032 13 78 8.0 11.3 0.15 0.33 0.33 95 1012.8
20260505085531 13 114 4.8 9.7 0.18 0.33 0.33 95 1012.9
20260505085031 13 101 4.8 11.3 0.15 0.33 0.33 95 1012.9
20260505084536 13 84 4.8 11.3 0.18 0.33 0.33 94 1012.7
20260505084030 13 79 8.0 9.7 0.18 0.30 0.30 94 1012.7
20260505083530 13 85 6.4 12.9 0.18 0.30 0.30 94 1012.7
20260505083031 13 92 4.8 9.7 0.18 0.28 0.28 94 1012.7
20260505082533 13 80 3.2 4.8 0.20 0.28 0.28 94 1012.7
20260505082030 13 80 1.6 4.8 0.18 0.25 0.25 94 1012.6
20260505081530 13 113 8.0 11.3 0.15 0.23 0.23 94 1012.5
20260505081030 13 93 4.8 11.3 0.15 0.23 0.23 94 1012.4
20260505080530 13 93 3.2 9.7 0.15 0.20 0.20 94 1012.4
20260505075032 13 91 4.8 11.3 0.15 0.15 0.15 93 1012.6
20260505074530 13 120 4.8 8.0 0.15 0.15 0.15 93 1012.8
20260505074030 13 127 3.2 8.0 0.13 0.15 0.15 93 1012.8
20260505073530 14 128 3.2 8.0 0.10 0.13 0.13 93 1012.9
20260505073030 14 144 3.2 4.8 0.10 0.10 0.10 92 1012.8
20260505072530 14 160 3.2 4.8 0.10 0.10 0.10 92 1012.8
20260505072030 14 171 3.2 4.8 0.08 0.08 0.08 92 1012.8
20260505071530 14 190 3.2 4.8 0.08 0.08 0.08 91 1012.7
20260505071030 14 164 0.0 4.8 0.08 0.08 0.08 91 1012.7
20260505070530 14 168 3.2 4.8 0.05 0.05 0.05 90 1012.8
20260505070030 15 174 3.2 4.8 0.05 0.05 0.05 91 1012.8
20260505065030 15 170 4.8 8.0 0.03 0.03 0.03 89 1012.8
20260505064529 15 184 3.2 4.8 0.03 0.03 0.03 89 1012.7
20260505064030 15 160 3.2 4.8 0.03 0.03 0.03 88 1012.6
20260505063030 15 150 3.2 4.8 0.00 0.00 0.00 88 1012.4
20260505062530 15 163 4.8 4.8 0.00 0.00 0.00 88 1012.4
20260505062030 15 138 4.8 8.0 0.00 0.00 0.00 88 1012.3
20260505061531 15 125 3.2 8.0 0.00 0.00 0.00 88 1012.2
20260505061030 15 113 6.4 12.9 0.00 0.00 0.00 88 1012.2
20260505060531 15 112 1.6 12.9 0.00 0.00 0.00 88 1012.2
20260505055530 15 111 1.6 3.2 0.00 0.00 0.00 88 1012.1
20260505054530 15 68 0.0 4.8 0.00 0.00 0.00 86 1011.9
20260505054046 15 71 4.8 4.8 0.00 0.00 0.00 85 1011.8
20260505053032 14 71 4.8 8.0 0.00 0.00 0.00 84 1011.8
20260505052531 14 80 3.2 4.8 0.00 0.00 0.00 84 1011.8
20260505051530 14 64 3.2 8.0 0.00 0.00 0.00 83 1011.8
20260505050530 14 49 3.2 4.8 0.00 0.00 0.00 85 1011.8
20260505041529 15 84 0.0 3.2 0.00 0.00 0.00 78 1011.9
20260505041030 15 132 0.0 0.0 0.00 0.00 0.00 76 1011.9
20260505040029 15 267 0.0 0.0 0.00 0.00 0.00 74 1011.9
20260505035529 15 267 0.0 1.6 0.00 0.00 0.00 70 1011.9
20260505035029 15 299 0.0 1.6 0.00 0.00 0.00 70 1011.8
20260505034529 15 333 0.0 0.0 0.00 0.00 0.00 70 1011.8
20260505033529 15 336 0.0 1.6 0.00 0.00 0.00 72 1011.9
20260505033030 15 325 0.0 1.6 0.00 0.00 0.00 72 1011.9
20260505032529 15 196 0.0 0.0 0.00 0.00 0.00 71 1012.0
20260505032030 15 196 0.0 0.0 0.00 0.00 0.00 71 1012.1
20260505031029 15 196 0.0 4.8 0.00 0.00 0.00 70 1012.2
20260505030529 15 207 1.6 3.2 0.00 0.00 0.00 70 1012.3
20260505030029 15 216 1.6 3.2 0.00 0.00 0.00 70 1012.3
20260505025531 15 216 1.6 4.8 0.00 0.00 0.00 69 1012.3
20260505024529 15 215 1.6 4.8 0.00 0.00 0.00 70 1012.3
20260505024029 15 211 3.2 4.8 0.00 0.00 0.00 71 1012.3
20260505023530 15 171 0.0 1.6 0.00 0.00 0.00 71 1012.3
20260505022529 15 199 3.2 4.8 0.00 0.00 0.00 72 1012.4
20260505022029 15 105 0.0 0.0 0.00 0.00 0.00 70 1012.3
20260505021529 15 105 1.6 4.8 0.00 0.00 0.00 69 1012.3
20260505021030 15 106 3.2 4.8 0.00 0.00 0.00 68 1012.4
20260505020030 15 60 0.0 0.0 0.00 0.00 0.00 69 1012.1
20260505015529 15 60 0.0 0.0 0.00 0.00 0.00 70 1012.0
20260505015030 15 60 0.0 0.0 0.00 0.00 0.00 70 1012.3
20260505014029 15 60 0.0 0.0 0.00 0.00 0.00 69 1012.4
20260505013530 15 60 0.0 0.0 0.00 0.00 0.00 70 1012.5
20260505013029 15 60 0.0 0.0 0.00 0.00 0.00 70 1012.6
20260505012529 15 60 0.0 0.0 0.00 0.00 0.00 70 1012.8
20260505012030 15 60 0.0 0.0 0.00 0.00 0.00 69 1012.8
20260505011529 15 60 0.0 0.0 0.00 0.00 0.00 69 1012.9
20260505011044 15 60 0.0 0.0 0.00 0.00 0.00 69 1012.9
20260505010529 15 60 0.0 0.0 0.00 0.00 0.00 69 1013.0
20260505010029 15 60 0.0 0.0 0.00 0.00 0.00 69 1013.1